Other Surface Observations
Issued by NWS Tucson, AZ

Home | Current Version | Previous Version | Text Only | Print | Product List | Glossary On
Versions: 1 2 3 4 5 6 7 8 9 10 11 12 13 14 15 16 17 18 19 20 21 22 23 24 25 26 27 28 29 30 31 32 33 34 35 36 37 38 39 40 41 42 43 44 45 46 47 48 49 50
430
SXUS55 KTWC 041916
OSOTWC

WEATHER ROUNDUP FOR SOUTHEAST ARIZONA
NATIONAL WEATHER SERVICE TUCSON AZ
1215 PM MST SUN DEC 04 2016

AZZ504>506-514-042015-
LOCATION       SKY/WX    TMP DP  RH WIND       PRES   REMARKS
TUCSON         SUNNY     60  28  29 N9        30.06F
DAVIS-MONTHAN  SUNNY     57  28  33 NW6       30.04F
CHILDRENS PARK N/A      N/A N/A  38 W2                PIMA CO DEQ
ALVERNON/22ND  N/A       53 N/A N/A W1                PIMA CO DEQ
CHERRY/GLENN   N/A       54 N/A N/A NW1               PIMA CO DEQ
TANGERINE      N/A       57 N/A N/A SW2               PIMA CO DEQ
CONTL RANCH    N/A       55  27  34 S3                PIMA CO DEQ
GRANT/1ST      N/A       53  27  37 SW2               PIMA CO DEQ
CRAYCROFT/22ND N/A       54  28  37 N/A               PIMA CO DEQ
GOLFLINKS/KOLB N/A       55  29  37 W1                PIMA CO DEQ
AJO/12TH       N/A       53  27  36 S4                PIMA CO DEQ
FAIRGROUNDS    N/A       59 N/A N/A E10               PIMA CO DEQ
SAGUARO        N/A       59  28  31 W5                *SABINO CYN
SAN CARLOS     N/A       58  17  20 S3                *SAN CARLOS
GREEN VALLEY   N/A       53  25  33 SE3               PIMA CO DEQ
HORSE CAMP CYN N/A       52  25  34 E7G11             *ARAVAIPA CYN
RINCON MTNS    N/A       46   7  20 E3G13             *NR MANNING CAMP
$$

AZZ509>511-042015-
LOCATION       SKY/WX    TMP DP  RH WIND       PRES   REMARKS
SAFFORD        SUNNY     54  28  36 CALM      30.08F
STRAY HORSE    N/A       48  -7   9 N/A               *
TRAIL CABIN    N/A       49   7  18 E6G10             *N OF GRANVILLE
BLACK HILLS    NOT AVBL
DRY LAKE       N/A       50  -1  11 E5G10             *NATANES MTNS
NOON CREEK     N/A       51  16  24 E4                *PINALENO MTNS
COLUMBINE      N/A       50  -3  10 E3G11             *PINALENO MTNS
GUTHRIE        N/A       43  12  28 NE6G11            *SW OF GUTHRIE
$$

AZZ502-503-513-042015-
LOCATION       SKY/WX    TMP DP  RH WIND       PRES   REMARKS
NOGALES        SUNNY     61  30  31 VRB6      30.02F
SELLS          N/A       63  24  22 E7G10             *
SASABE         N/A       58  27  30 NE6G10            *ALTAR VLY
HOPKINS        N/A       54  23  30 W4G13             *SANTA RITA MTNS
CARR CYN       N/A       53  32  44 NW2               *W OF HEREFORD
$$

AZZ507-508-512-042015-
LOCATION       SKY/WX    TMP DP  RH WIND       PRES   REMARKS
SIERRA VISTA   SUNNY     57  27  31 E8        30.07F
DOUGLAS        SUNNY     56  24  29 E17       30.05F
EMPIRE MTNS    NOT AVBL
MULESHOE RANCH N/A       56  18  22 NE5G11            *PRESERVE
HEADQUARTERS   N/A       52  30  42 E6G13             *CHIRICAHUA MTNS
$$

.............................NOTES.............................
THIS IS AN AUTOMATED COLLECTIVE WITH MINIMAL QUALITY CONTROL.
PIMA CO DEQ SITES HAVE NONSTANDARD WIND SENSOR HEIGHTS.
PIMA CO DEQ SITES DO NOT REPORT WIND GUSTS.
* INDICATES WIND SENSORS LOCATED AT 20 FEET INSTEAD OF 33 FEET.
..............................KEY..............................
SKY/WX - SKY CONDITION/WEATHER
TMP    - TEMPERATURE IN FAHRENHEIT
DP     - DEWPOINT IN FAHRENHEIT
RH     - RELATIVE HUMIDITY IN PERCENT
WIND   - DIRECTION AND SPEED IN MILES PER HOUR (MPH)
VRB    - VARIABLE WIND DIRECTION
PRES   - MEAN SEA LEVEL PRESSURE IN INCHES OF MERCURY
         F - FALLING PRESSURE   R - RISING PRESSURE
         S - STEADY PRESSURE
VSB    - VISIBILITY IN MILES
HX     - HEAT INDEX IN FAHRENHEIT
WCI    - WIND CHILL INDEX IN FAHRENHEIT
N/A    - NOT AVAILABLE
AFB    - AIR FORCE BASE
         DAVIS-MONTHAN IS DAVIS-MONTHAN AIR FORCE BASE
CYN    - CANYON
MTNS   - MOUNTAINS
NCA    - NATIONAL CONSERVATION AREA
NR     - NEAR
VLY    - VALLEY
CONTL  - CONTINENTAL
PIMA CO DEQ - PIMA COUNTY DEPT OF ENVIRONMENTAL QUALITY



USA.gov is the U.S. government's official web portal to all federal, state and local government web resources and services.